Flag for U.S.A. Weather past 2 weeks in Evansville, Indiana, U.S.A.

Now
33 °F

Light freezing rain. Mostly cloudy.


Feels Like: 29 °F
Forecast: 30 / 38 °F
Wind: 5 mph from East

Location: Evansville Regional Airport

Current Time: Mar 1, 2015 at 6:03:16 AM

Latest Report: Mar 1, 2015 at 4:54 AM


Visibility: 8 mi

Pressure: 30.39 "Hg

Humidity: 72%

Dew point: 25 °F

Location of EvansvilleLocation

Historic Weather in Evansville — Graph

°F

Evansville temperature yesterday

Maximum temperature yesterday: 35 °F (at 3:54 PM)
Minimum temperature yesterday: 18 °F (at 12:54 AM)
Average temperature yesterday: 28 °F

Past Weeks' High & Low Weather Summary

 TemperatureHumidityPressure
High37 °F (Feb 25, 3:54 PM)92% (Feb 21, 1:54 AM)30.73 "Hg (Feb 21, 1:54 AM)
Low-5 °F (Feb 20, 2:54 AM)30% (Feb 14, 2:54 PM)29.88 "Hg (Feb 25, 5:54 PM)
Average21 °F64%30.29 "Hg
* Reported Feb 14 4:54 AM — Mar 1 4:54 AM, Evansville, Weather by CustomWeather, © 2015

Note: Actual official high and low records may vary slightly from our data, if they occured in-between our weather recording intervals... More about our weather records

Advertising

Evansville weather history for previous 24 hours

 ConditionsComfort  
Time TempWeatherWind HumidityBarometerVisibility
4:54 AM
Sun, Mar 1
33 °FLight freezing rain. Mostly cloudy.5 mph72%30.39 "Hg8 mi
3:54 AM32 °FLight snow. Overcast.3 mph75%30.40 "Hg8 mi
2:54 AM32 °FMostly cloudy.No wind73%30.42 "Hg10 mi
1:54 AM32 °FOvercast.3 mph69%30.43 "Hg10 mi
12:54 AM31 °FOvercast.5 mph73%30.44 "Hg10 mi
11:54 PM
Sat, Feb 28
32 °FOvercast.9 mph61%30.47 "Hg10 mi
10:54 PM32 °FOvercast.8 mph61%30.49 "Hg10 mi
9:54 PM32 °FOvercast.9 mph61%30.50 "Hg10 mi
8:54 PM34 °FOvercast.9 mph54%30.51 "Hg10 mi
7:54 PM34 °FOvercast.5 mph54%30.51 "Hg10 mi
6:54 PM34 °FOvercast.7 mph59%30.50 "Hg10 mi
5:54 PM34 °FOvercast.3 mph59%30.50 "Hg10 mi
4:54 PM35 °FOvercast.8 mph50%30.50 "Hg10 mi
3:54 PM35 °FMostly cloudy.5 mph46%30.53 "Hg10 mi
2:54 PM34 °FOvercast.6 mph46%30.54 "Hg10 mi
1:54 PM33 °FScattered clouds.10 mph48%30.56 "Hg10 mi
12:54 PM31 °FOvercast.8 mph47%30.59 "Hg10 mi
11:54 AM30 °FMore clouds than sun.8 mph49%30.64 "Hg10 mi
10:54 AM28 °FOvercast.5 mph49%30.67 "Hg10 mi
9:54 AM26 °FPartly sunny.7 mph50%30.69 "Hg10 mi
8:54 AM24 °FOvercast.9 mph52%30.70 "Hg10 mi
7:54 AM22 °FOvercast.7 mph55%30.71 "Hg10 mi
6:54 AM21 °FMostly cloudy.7 mph57%30.70 "Hg10 mi
Weather by CustomWeather, © 2015

See weather overviewHow to use our weather pages